Scottsdale, AZ

11:03 PM MST on January 17, 2017 (GMT -0700)
Scottsdale

Weather History for KSDL - February, 2013

Change the Weather History Date:

Sunday, February 10, 2013

  Actual Average Record
Temperature  
Mean Temperature 47 °F -  
Max Temperature 55 °F 64 °F 82 °F (2016)
Min Temperature 39 °F 44 °F 37 °F (2003)
Degree Days  
Heating Degree Days 18    
Moisture  
Dew Point 30 °F    
Average Humidity 53    
Maximum Humidity 79    
Minimum Humidity 33    
Precipitation  
Precipitation 0.00 in - - ()
Sea Level Pressure  
Sea Level Pressure 29.98 in    
Wind  
Wind Speed 2 mph (SSW)    
Max Wind Speed 8 mph    
Max Gust Speed -    
Visibility 10 miles    
Events      
Averages and records for this station are not official NWS values.
T = Trace of Precipitation, MM = Missing Value Source: NWS Daily Summary

Daily Weather History Graph

Daily Weather History Graph

Search for Another Location

Airport or City:

Trip Planner

Search our weather history database for the weather conditions in past years. The results will help you decide how hot, cold, wet, or windy it might be!

Date:

Astronomy

Feb. 10, 2013 Rise Set
Actual Time 7:16 AM MST 6:07 PM MST
Civil Twilight 6:50 AM MST 6:33 PM MST
Nautical Twilight 6:21 AM MST 7:02 PM MST
Astronomical Twilight 5:52 AM MST 7:31 PM MST
Moon 7:12 AM MST (2/10) 6:57 PM MST (2/10)
Length of Visible Light 11h 42m
Length of Day
10h 51m
New Moon, 0% of the Moon is Illuminated
Feb 10
New Moon
Feb 17
First Quarter
Feb 25
Full
Mar 4
Last Quarter
Mar 11
New

Hourly Weather History & Observations

Time (MST) Temp. Dew Point Humidity Pressure Visibility Wind Dir Wind Speed Gust Speed Precip Events Conditions
12:53 AM 45.0 °F 33.1 °F 63% 30.02 in 10.0 mi Calm Calm - N/A   Mostly Cloudy
1:53 AM 44.1 °F 33.1 °F 65% 30.02 in 10.0 mi Calm Calm - N/A   Scattered Clouds
2:53 AM 43.0 °F 33.1 °F 68% 30.01 in 10.0 mi Calm Calm - N/A   Clear
3:53 AM 41.0 °F 33.1 °F 73% 30.00 in 10.0 mi Calm Calm - N/A   Clear
4:53 AM 39.9 °F 33.1 °F 77% 30.00 in 10.0 mi Calm Calm - N/A   Clear
5:53 AM 39.0 °F 33.1 °F 79% 30.00 in 10.0 mi Calm Calm - N/A   Clear
6:53 AM 39.0 °F 33.1 °F 79% 30.01 in 10.0 mi Calm Calm - N/A   Clear
7:53 AM 39.0 °F 33.1 °F 79% 30.01 in 10.0 mi Calm Calm - N/A   Clear
8:53 AM 45.0 °F 32.0 °F 60% 30.03 in 10.0 mi Calm Calm - N/A   Clear
9:53 AM 48.0 °F 28.0 °F 46% 30.03 in 10.0 mi SSE 6.9 mph - N/A   Clear
10:53 AM 50.0 °F 28.0 °F 43% 30.03 in 10.0 mi SE 5.8 mph - N/A   Clear
11:53 AM 52.0 °F 27.0 °F 38% 30.01 in 10.0 mi SSE 4.6 mph - N/A   Clear
12:53 PM 53.1 °F 28.0 °F 38% 29.99 in 10.0 mi Variable 5.8 mph - N/A   Mostly Cloudy
1:53 PM 55.0 °F 27.0 °F 34% 29.96 in 10.0 mi SW 8.1 mph - N/A   Mostly Cloudy
2:53 PM 54.0 °F 26.1 °F 34% 29.94 in 10.0 mi WSW 6.9 mph - N/A   Mostly Cloudy
3:53 PM 55.0 °F 26.1 °F 33% 29.93 in 10.0 mi South 5.8 mph - N/A   Overcast
4:53 PM 55.0 °F 26.1 °F 33% 29.94 in 10.0 mi WSW 6.9 mph - N/A   Mostly Cloudy
5:53 PM 54.0 °F 25.0 °F 33% 29.94 in 10.0 mi SSW 6.9 mph - N/A   Mostly Cloudy
6:53 PM 53.1 °F 26.1 °F 35% 29.95 in 10.0 mi Calm Calm - N/A   Clear
7:53 PM 50.0 °F 28.0 °F 43% 29.95 in 10.0 mi Calm Calm - N/A   Clear
8:53 PM 48.9 °F 28.9 °F 46% 29.96 in 10.0 mi North 3.5 mph - N/A   Clear
9:53 PM 48.0 °F 30.0 °F 50% 29.96 in 10.0 mi NE 3.5 mph - N/A   Clear
10:53 PM 46.0 °F 30.9 °F 56% 29.96 in 10.0 mi Calm Calm - N/A   Overcast
11:53 PM 46.0 °F 30.9 °F 56% 29.96 in 10.0 mi Calm Calm - N/A   Clear